Theta_e
293 293 294 294 295 296 296 296 297 298 298 299 299 299 299 300 301 300 300 301 301 303 305 308 311 312 315 316 317 318 319 320 321 323 323 324 325 325 325 325 325 325
291 292 293 293 293 294 295 296 296 297 298 298 299 299 299 300 300 300 300 301 301 301 303 305 308 310 312 313 315 316 317 317 318 320 321 321 322 324 324 325 326 326
290 290 291 291 292 293 293 294 295 296 297 297 298 298 299 300 300 300 300 300 300 301 302 303 304 307 309 311 313 314 315 315 316 318 318 319 320 321 322 323 323 324
289 290 290 290 291 291 291 291 292 293 294 294 295 297 298 298 298 298 299 299 300 300 301 302 302 304 306 309 311 313 314 315 316 316 316 318 318 320 321 322 322 323
288 289 290 290 291 290 290 290 290 291 291 292 293 294 295 296 297 298 298 299 299 299 300 301 302 303 304 306 309 311 312 314 315 316 316 316 317 317 319 319 320 321
288 289 289 290 290 289 289 288 289 289 289 289 290 292 294 295 296 297 298 298 299 299 299 299 300 301 302 304 306 309 311 312 314 315 315 315 316 317 318 318 318 318
287 287 288 289 288 288 288 288 288 288 288 288 289 290 292 292 294 295 296 297 298 298 298 299 299 300 301 301 302 304 308 311 313 314 314 315 315 315 316 316 317 317
286 287 287 287 286 287 287 287 287 287 287 288 287 288 289 290 290 292 293 295 296 297 297 298 298 299 300 301 301 301 303 307 310 312 314 315 315 315 315 315 316 316
285 285 285 285 285 285 285 286 286 286 287 286 287 287 287 288 288 289 291 293 294 296 296 297 297 298 299 299 300 301 302 303 305 308 311 313 314 316 316 316 316 316
283 283 283 283 283 284 284 284 285 285 286 286 286 286 286 287 287 288 289 291 293 295 296 296 296 297 297 298 299 299 300 301 303 305 307 309 312 314 316 317 317 317
281 281 281 281 281 282 282 283 283 284 284 284 285 285 285 285 286 287 288 289 291 293 294 295 296 296 296 297 298 298 299 300 301 302 304 306 308 310 308 314 315 315
280 280 280 280 281 281 281 282 282 283 283 283 284 283 284 285 285 286 287 287 288 290 292 294 296 296 296 296 297 298 298 299 300 301 302 303 304 306 308 311 313 314
279 279 279 279 280 280 280 281 281 281 282 282 283 283 283 284 284 285 286 286 286 288 289 292 294 295 295 296 296 297 297 298 299 299 300 302 303 305 306 307 309 311
277 278 278 278 279 279 279 279 280 280 280 281 282 282 282 283 284 285 285 285 286 287 289 292 293 294 295 296 296 297 297 297 297 298 298 299 301 302 304 306 307 308
277 277 277 277 277 277 277 278 278 278 279 279 280 281 282 283 284 285 284 284 285 286 288 290 291 293 295 295 294 294 295 295 296 296 297 298 299 300 301 303 304 306
276 276 276 276 276 276 276 277 277 277 278 278 279 279 280 282 283 284 284 284 284 285 287 288 289 291 291 291 292 293 293 294 295 295 296 296 297 298 299 301 302 303
274 275 275 275 275 275 276 276 276 277 277 277 278 278 279 281 283 283 283 284 284 285 285 286 288 288 289 291 291 292 292 293 293 294 295 295 296 297 297 298 300 301
274 274 273 274 274 274 275 275 276 276 276 277 277 277 279 281 282 283 283 283 284 284 285 286 286 288 289 290 290 291 291 292 292 292 293 294 295 296 297 298 299 300
273 273 273 273 273 274 274 275 275 275 275 276 276 277 279 280 281 282 282 283 284 284 284 285 285 287 289 290 290 290 291 291 292 292 292 293 294 295 296 296 297 298
272 272 272 272 273 273 274 274 274 274 275 275 276 277 278 279 280 280 281 282 283 283 284 285 285 287 289 289 290 290 291 291 291 292 292 292 293 295 296 296 296 297
271 271 271 272 272 273 273 273 273 274 274 275 276 277 277 278 279 279 281 282 282 283 284 284 285 287 288 289 289 290 291 291 291 292 292 292 293 294 294 295 295 297
271 270 271 271 272 272 272 272 273 273 273 275 276 276 277 277 278 279 280 281 282 283 283 284 285 287 288 289 289 290 290 290 290 291 291 291 292 292 293 294 294 294
270 270 271 271 271 271 271 271 272 273 274 276 275 275 276 277 277 279 280 281 282 283 283 284 285 287 288 288 288 289 289 289 289 289 290 290 291 292 293 293 293 293
270 270 270 270 270 270 271 271 272 273 274 275 275 275 275 276 277 278 279 281 281 282 283 283 284 286 288 288 288 288 288 287 287 288 288 289 290 292 293 293 293 290
270 270 270 270 270 270 271 271 271 272 274 274 274 274 275 276 277 277 278 279 281 282 284 284 285 286 287 287 287 288 287 287 287 287 287 288 289 290 292 292 293 292
269 269 269 269 269 270 270 270 271 271 271 272 272 273 274 275 277 277 277 278 280 281 283 284 285 286 286 287 287 287 287 286 287 286 285 287 288 288 289 290 292 293
Wind_Speed
7 6 6 6 5 5 6 6 6 6 6 6 6 6 6 7 7 7 7 6 6 6 6 6 6 7 7 7 7 8 8 9 9 9 10 10 11 13 13 14 14 13
7 7 6 5 5 6 6 6 6 6 7 6 6 7 7 7 7 7 7 8 7 7 6 6 6 6 7 7 7 8 8 8 10 8 10 12 11 12 14 14 14 14
7 7 7 7 7 8 8 7 6 6 6 7 7 7 8 7 8 8 8 7 8 7 7 7 7 6 7 7 7 8 8 9 10 9 10 12 11 11 12 11 12 14
6 6 6 6 6 7 7 7 7 7 7 7 8 8 8 8 8 9 8 8 8 8 7 7 7 7 7 7 7 8 9 9 9 9 10 10 10 11 12 10 12 12
5 5 5 5 5 6 6 7 8 8 8 7 8 8 8 9 9 9 9 9 8 8 8 8 7 8 7 8 7 8 8 8 9 8 10 11 10 10 10 10 12 13
5 4 4 5 5 6 6 6 6 7 8 9 9 8 7 8 8 9 10 10 9 9 9 8 8 7 7 8 8 8 8 8 8 9 11 12 11 10 9 10 11 13
7 7 7 6 6 6 5 6 6 6 6 6 7 7 8 8 8 9 10 10 10 10 9 9 8 8 7 7 7 8 9 9 10 9 11 11 10 12 11 11 12 13
6 6 6 6 6 6 6 7 7 7 7 7 7 6 6 8 8 8 8 9 9 10 9 9 9 9 8 7 8 8 9 7 9 10 11 12 11 12 11 10 11 13
5 6 7 7 8 7 8 8 8 7 7 8 8 8 6 6 8 8 9 8 8 9 9 9 9 9 8 8 8 8 9 9 9 10 11 12 12 13 12 12 13 13
5 5 6 7 7 7 8 8 8 7 7 8 8 7 8 7 7 8 7 8 8 9 10 9 9 9 9 9 9 8 8 9 9 10 10 11 12 13 12 12 13 13
6 6 6 7 7 6 7 8 8 8 7 7 8 9 8 8 8 6 7 8 9 9 10 10 10 10 9 10 9 8 9 9 9 10 10 11 11 11 12 12 13 13
7 7 7 7 7 7 7 7 7 7 8 7 7 9 9 8 8 8 7 9 9 10 11 11 10 9 9 10 10 9 9 9 9 9 10 11 11 11 11 11 12 13
5 6 6 6 6 7 6 6 7 7 7 8 7 8 9 9 9 9 8 8 9 9 10 10 11 10 9 9 9 9 9 9 9 9 9 9 10 10 10 11 12 12
4 4 4 5 5 5 6 6 6 7 7 7 7 7 8 8 10 11 10 8 9 8 9 9 10 10 9 8 8 9 10 10 11 10 10 10 10 10 10 10 11 11
3 3 3 4 4 5 6 7 7 7 7 6 6 7 6 7 7 8 10 11 10 9 10 9 9 8 7 9 12 13 11 11 11 11 11 11 11 10 10 10 10 10
2 3 3 4 5 6 6 6 7 7 8 8 8 7 7 7 7 7 8 9 11 11 9 9 9 8 10 17 15 12 13 12 11 11 11 11 11 11 10 10 10 10
3 3 3 4 4 5 5 6 7 7 7 7 8 8 8 7 7 9 8 9 9 10 11 9 8 8 17 19 20 19 14 13 13 12 11 11 10 10 10 10 9 10
5 5 5 4 3 4 5 5 5 6 6 7 8 9 8 8 8 8 9 9 9 9 10 10 9 12 20 20 21 21 17 13 13 12 11 11 11 11 10 9 10 10
4 5 5 6 6 6 5 4 4 5 5 7 8 8 8 8 8 9 9 9 9 10 9 9 9 15 19 21 21 22 20 16 11 12 12 12 12 11 11 10 9 9
4 5 5 5 5 6 6 6 6 6 5 5 6 6 7 8 8 9 9 9 9 9 9 10 10 13 19 20 20 21 21 17 12 12 11 12 12 12 10 10 9 9
5 5 6 6 6 6 6 5 6 7 7 6 6 6 7 7 8 10 9 9 10 10 9 11 9 17 20 20 21 22 22 18 11 10 10 11 11 11 11 11 10 10
4 5 5 6 6 6 7 7 6 6 8 7 7 6 5 5 6 6 8 10 10 10 10 10 10 17 18 18 22 22 22 12 11 11 11 11 11 11 10 10 9 9
4 4 4 5 6 6 7 7 8 8 7 7 8 7 7 7 7 8 8 9 9 9 10 11 11 14 16 19 21 23 17 11 11 10 10 11 11 11 11 10 10 9
4 4 5 5 5 6 7 6 6 5 6 7 8 10 10 9 9 9 8 7 9 9 9 10 11 13 15 18 21 22 18 12 10 10 11 11 11 11 10 10 11 15
3 4 4 6 6 6 6 7 7 7 7 7 7 8 10 9 9 9 10 8 7 9 11 11 10 11 13 17 21 22 17 10 10 10 11 11 11 11 10 10 11 11
4 4 5 5 6 6 6 6 6 6 6 7 7 7 8 9 9 9 11 10 9 9 9 9 10 9 11 19 21 22 23 14 10 10 12 12 11 10 11 10 10 10
Wind_Direction
15 13 8 4 359 355 348 347 342 335 330 326 322 318 316 310 309 307 303 304 301 297 296 291 289 285 280 273 263 256 251 249 250 246 246 245 246 245 247 246 244 244
12 8 4 1 359 360 356 352 343 340 332 330 326 321 318 317 314 309 308 306 303 298 294 288 282 280 279 276 274 268 261 252 251 245 248 247 247 248 250 249 249 247
7 7 8 6 357 353 352 350 350 348 344 337 332 333 328 327 322 321 314 310 304 302 299 292 287 280 275 272 270 268 266 263 259 251 246 248 247 247 248 250 252 252
5 2 358 357 357 355 351 351 353 353 349 349 346 337 331 325 324 322 321 317 313 310 304 299 293 288 282 277 273 268 265 263 260 259 255 254 248 248 249 247 251 252
2 358 358 355 356 356 353 357 354 350 348 340 338 339 335 333 331 327 325 322 319 314 312 307 301 295 291 285 278 275 270 267 262 255 255 257 254 250 250 247 249 253
7 4 359 1 360 356 360 0 353 349 344 344 340 334 334 333 331 327 325 324 322 318 315 310 306 301 297 291 287 278 278 273 268 258 256 255 257 250 252 249 249 252
358 358 0 2 0 356 359 356 352 348 346 334 329 337 335 335 334 331 328 327 322 320 317 313 309 306 302 296 291 287 283 279 275 267 261 261 257 255 251 251 250 252
358 356 360 355 359 354 360 355 352 350 341 338 341 335 339 333 331 328 326 323 321 317 316 313 311 307 305 300 295 293 288 283 281 275 268 265 259 259 255 251 250 252
3 5 1 355 358 353 354 350 347 343 343 342 338 335 337 333 326 324 320 318 316 316 315 314 313 311 310 306 300 297 293 288 282 279 276 272 266 261 259 254 253 250
15 7 7 360 359 351 347 344 342 338 339 339 334 332 333 330 328 322 320 320 319 320 319 315 315 311 308 306 302 298 293 291 288 281 276 274 273 270 265 261 258 257
5 6 5 1 355 351 344 340 339 336 339 338 334 333 333 330 328 329 326 327 324 318 317 316 313 310 308 305 301 298 293 290 287 284 280 276 272 270 268 264 262 258
358 359 359 355 350 346 343 339 336 336 334 335 334 329 329 328 327 330 331 327 325 319 316 312 311 311 308 304 301 299 295 291 289 284 283 281 278 272 268 265 263 262
357 354 345 345 345 339 336 336 338 335 333 332 331 328 326 326 329 327 328 325 321 318 314 311 312 313 311 307 304 300 299 299 297 294 288 286 282 279 275 269 265 264
352 341 339 336 333 332 331 333 332 334 333 327 326 326 325 326 326 327 325 325 319 315 313 312 310 312 311 311 313 320 320 314 310 303 298 291 287 282 279 275 272 270
342 337 332 332 331 330 335 336 335 331 328 328 325 324 321 317 315 320 324 323 322 323 322 323 319 314 316 329 330 324 319 313 311 305 300 296 290 287 282 278 275 273
348 340 334 338 334 340 336 331 330 330 330 329 329 324 319 313 316 320 320 319 323 323 326 326 322 319 326 325 321 321 319 316 310 305 301 296 293 289 284 279 275 272
0 355 348 344 332 329 328 330 330 329 326 324 326 327 323 321 324 325 323 324 321 321 322 320 317 315 317 321 323 320 319 316 314 309 303 296 291 286 286 285 280 275
354 347 349 343 339 333 328 323 320 324 326 326 325 326 326 323 323 323 324 323 321 317 316 316 312 313 318 321 322 321 319 315 312 309 305 300 294 290 287 287 285 283
354 349 342 340 339 335 327 327 324 323 329 331 328 321 318 323 321 323 322 320 317 318 313 311 310 315 318 321 323 322 319 315 308 306 304 300 295 291 287 285 285 284
355 348 343 335 331 332 332 335 337 337 329 316 308 315 319 318 322 319 317 318 317 313 309 308 308 311 318 321 323 323 320 315 306 305 300 296 295 290 289 287 284 284
353 349 339 333 333 332 335 338 336 331 331 328 323 322 323 321 322 322 318 317 317 313 307 306 304 312 319 320 323 324 318 316 308 304 300 298 296 293 289 287 283 282
350 342 334 333 333 337 341 339 341 336 328 327 324 319 309 302 300 298 307 313 312 309 308 304 304 315 317 320 324 324 321 316 315 308 303 297 296 295 290 284 282 277
344 336 332 331 332 337 340 340 338 335 331 332 326 322 321 319 314 313 310 308 308 308 309 307 308 312 318 324 327 328 328 321 317 312 306 304 299 300 295 290 283 276
339 335 336 332 337 338 333 331 325 319 326 334 331 325 321 319 316 311 308 303 305 306 307 307 305 305 312 322 327 329 328 323 317 314 309 305 302 296 297 292 286 280
337 343 339 336 333 331 331 331 330 327 325 324 321 317 311 311 312 309 308 306 303 303 302 301 301 305 311 321 324 326 326 319 319 313 313 312 307 303 299 298 295 291
349 346 341 335 327 329 331 326 320 319 320 321 319 315 313 312 311 308 306 306 308 309 307 305 306 310 317 322 325 324 324 319 314 315 316 314 310 308 308 303 299 295